sat.trackr.live / text

‹ back to catalog

STARLINK-37466

NORAD 69038 · 2026-101P

PAYLOAD ACTIVE UNKNOWN

§ Identity

Operator
Country
US
Launch date
2026-05-06
Launch site
AFWTR
Launch vehicle
Mass (kg)
RCS (m²)

Purposes: comms

External: N2YO · Heavens-Above · Gunter

§ Orbital elements

Epoch: 2026-09-20T00:53:04.245216Z

Period
93.91 min
Inclination
97.2823°
Eccentricity
0.0001645
Mean motion
15.33444180 rev/d
Perigee alt
464.4 km
Apogee alt
466.7 km
Semi-major
6,843.7 km
B*
4.0110e-4
RAAN
116.6135°
Arg perigee
88.4608°
Mean anomaly
271.6823°
Rev number
2,111

§ Raw data

STARLINK-374661 69038U 26101P   26263.03685469  .00012896  00000+0  40110-3 0  99902 69038  97.2823 116.6135 0001645  88.4608 271.6823 15.33444180 21119

JSON: /api/v1/satellites/69038 · /tle

For live sub-satellite position, see the globe view (requires WebGL).

§ Visibility from observer

Set your observer location to see the next 7 days of passes ≥ 10°. The values pass through the URL so the page stays shareable.

No JS? Fill the form by hand. The geolocation button needs JavaScript.